Regional Weather Roundup
Issued by NWS

Home | Current Version | Previous Version | Graphics & Text | Print | Product List | Glossary On
Versions: 1 2 3 4 5 6 7 8 9 10 11 12 13 14 15 16 17 18 19 20 21 22 23 24 25 26 27 28 29 30 31 32 33 34 35 36 37 38 39 40 41 42 43 44 45 46 47 48 49 50
000
ASUS45 KTFX 012319
RWRMT
MONTANA HOURLY WEATHER ROUNDUP
NATIONAL WEATHER SERVICE GREAT FALLS MT
519 PM MDT MON SEP 1 2014

NOTE: "FAIR" INDICATES FEW OR NO CLOUDS BELOW 12000 FEET WITH NO
SIGNIFICANT WEATHER AND/OR OBSTRUCTIONS TO VISIBILITY.

* THESE STATIONS ARE NOT UNDER NWS QUALITY CONTROL. THEY DO NOT
   REPORT WEATHER SUCH AS PRECIPITATION OR FOG.

MTZ001>007-043-020000-
WEST OF THE DIVIDE
CITY           SKY/WX    TMP DP  RH WIND       PRES   REMARKS
KALISPELL      CLOUDY    66  39  37 VRB3      29.95F
MISSOULA       FAIR      72  37  28 NW12      30.00F
BUTTE          CLEAR     64  32  30 VRB6      30.04F
MULLAN PASS    CLOUDY    50  37  61 VRB7      30.11S
* LINCOLN      N/A       66  34  31 SW9G18     N/A
* LOOKOUT PASS N/A       58  38  47 SE10G15    N/A
* POLSON       N/A       67  36  32 S3G10      N/A
* RONAN APT    CLEAR     70  39  32 W10G15     N/A
* SEELEY LAKE  N/A       66  38  36 NW4G15     N/A
* THOMP F APT  CLEAR     63  37  38 S9G19      N/A
$$

MTZ008-052>055-020000-
SOUTHWEST MONTANA
CITY           SKY/WX    TMP DP  RH WIND       PRES   REMARKS
BOZEMAN        CLEAR     70  37  30 VRB3      30.00F
DILLON         FAIR      72  32  23 W9        30.02S
W YELLOWSTONE  MOCLDY    61  37  41 SW16G25   30.12S
* THREE FORKS  CLEAR     72  59  64 SE5        N/A
* BOULDER HILL N/A       64  29  27 S19G24     N/A
* MONIDA PASS  N/A       60  36  41 SW20G26    N/A
* RAYNOLDS PAS N/A       59  45  60 SW10G17    N/A
* WHITEHALL    N/A       74  38  27 SW9G21     N/A
* WISE RIVER   N/A       65  31  28 W15G25     N/A
$$

MTZ009>010-012-014-046-048-049-054-020000-
EAST SLOPES AND CENTRAL MONTANA
CITY           SKY/WX    TMP DP  RH WIND       PRES   REMARKS
CUT BANK       CLEAR     66  39  37 W30G40    29.90S
GREAT FALLS    MOCLDY    70  34  27 W18G31    29.90F
HELENA         CLEAR     72  36  27 W13G18    29.97F
MALMSTROM AFB  MOCLDY    70  36  29 W16G24    29.91F
* CONRAD       CLEAR     70  39  32 SW17G28    N/A
* EAST GLACIER N/A       58  39  49 W17G24     N/A
* MONARCH      N/A       60  27  28 SW10G20    N/A
* PENDROY      N/A       66  37  34 W16G24     N/A
* ROGERS PASS  N/A       60  34  38 E9G21      N/A
* SAINT MARY   N/A       60  39  46 SW10G21    N/A
* SWEET GRASS  N/A       67  35  31 W19G30     N/A
$$

MTZ011-013-016-021-035-040-045-047-050-051-020000-
NORTH CENTRAL MONTANA
CITY           SKY/WX    TMP DP  RH WIND       PRES   REMARKS
HAVRE          CLOUDY    73  36  26 W26G32    29.82F
LEWISTOWN      MOCLDY    68  36  31 W10       29.93F
* CHINOOK      PTCLDY    73  39  29 W13G21    29.81F
* FORT BENTON  PTCLDY    72  34  25 SW10      29.86F
* CHESTER      N/A       69  34  28 W15G27     N/A
* DENTON       N/A       69  35  29 W14G24     N/A
* GEYSER       N/A       66  33  29 W18G23     N/A
* JUDITH GAP   N/A       67  36  32 SW17G24    N/A
* LOMA         N/A       72  36  27 SW15G21    N/A
$$

MTZ017>020-022>027-061-062-020000-
NORTHEAST MONTANA
CITY           SKY/WX    TMP DP  RH WIND       PRES   REMARKS
GLASGOW        CLOUDY    63  48  58 SW20      29.85R
GLENDIVE       CLOUDY    66  50  56 W3        29.88S
JORDAN         CLEAR     72  43  35 NW8       29.86F
SIDNEY         MOCLDY    66  46  49 NW6       29.86R
WOLF POINT     PTCLDY    73  45  37 SW13G20   29.83S
* BEAVER HILL  N/A       66  45  47 W4G9       N/A
* CIRCLE       N/A       70  46  42 SW5        N/A
* LINDSAY DVD  N/A       65  44  47 W11        N/A
* NAVAJO       N/A       70  38  31 NW12G21    N/A
$$

MTZ028>042-056>058-020000-
SOUTHCENTRAL AND SOUTHEAST MONTANA
CITY           SKY/WX    TMP DP  RH WIND       PRES   REMARKS
BAKER          PTCLDY    68  46  45 S7        29.90F
BILLINGS       FAIR      73  34  24 NW15      29.93F
LIVINGSTON     CLEAR     72  36  27 W21G30    29.97F
MILES CITY     MOCLDY    72  37  28 NW20      29.87S
* LAUREL APT   CLEAR     72  34  25 W11G22     N/A
* ROUNDUP APT  PTCLDY    70  37  30 NW6        N/A
* ALZADA       N/A       67  42  40 SW11G17    N/A
* HYSHAM       N/A       70  35  28 W8         N/A
* LAME DEER    N/A       66  37  34 NW8        N/A
* REED POINT   N/A       72  35  26 W18G27     N/A
* ROSCOE HILL  N/A       67  32  27 E10        N/A
$$

REGIONAL REPORTS...DAKOTAS
CITY           SKY/WX    TMP DP  RH WIND       PRES   REMARKS
WILLISTON      CLOUDY    64  45  50 W20       29.83R
DICKINSON      MOCLDY    68  45  44 W10       29.86S
BEACH          N/A       64  46  52 W8        29.88F
CROSBY         FAIR      68  37  32 W10G16    29.80S
TIOGA          MOCLDY    70  41  35 NW10      29.85R
WATFORD CITY   FAIR      66  41  40 W7        29.82R
BISMARCK       CLEAR     73  45  37 NW16      29.83R
GRAND FORKS    MOCLDY    72  57  59 N8        29.73R
FARGO          MOCLDY    70  55  59 NE9       29.71R
BUFFALO SD     PTCLDY    68  45  44 N9        29.84S
RAPID CITY     MOCLDY    66  48  52 NW10      29.95S
$$

REGIONAL REPORTS...WYOMING/IDAHO/WASHINGTON
CITY           SKY/WX    TMP DP  RH WIND       PRES   REMARKS
GILLETTE       PTCLDY    63  43  48 W7        29.99F
SHERIDAN       PTCLDY    70  39  32 N5        29.98S
CODY           PTCLDY   N/A N/A N/A N/A        N/A
YELLOWSTONE LA PTCLDY    52  36  55 VRB6      30.21R
SALMON         CLEAR     72  39  30 N5        29.97F
MULLAN PASS    CLOUDY    50  37  61 VRB7      30.11S
SAND POINT     CLOUDY    68  43  40 S8        29.97F
SPOKANE        FAIR      72  37  28 VRB7      29.99F
$$

REGIONAL REPORTS...ALBERTA
CITY           SKY/WX    TMP DP  RH WIND       PRES   REMARKS
CALGARY        CLOUDY    68  32  26 W13       29.77F
LETHBRIDGE     FAIR      70  37  30 W31G39    29.80F
MEDICINE HAT   MOCLDY    73  41  32 W10       29.76F
EDMONTON       MOCLDY    63  39  41 NW6       29.73S
WATERTON GATE  N/A       63  37  38 SW16G30    N/A
CARDSTON       N/A       63  41  45 W20G28     N/A
MILK RIVER     N/A       70  37  30 W21        N/A
$$

REGIONAL REPORTS...SASKATCHEWAN
CITY           SKY/WX    TMP DP  RH WIND       PRES   REMARKS
SWIFT CURRENT  FAIR      68  36  31 W12G17    29.77F
REGINA         FAIR      68  43  40 NW17      29.78S
VAL MARIE      N/A       72  37  28 W16G26     N/A
ASSINIBOIA     N/A       66  37  34 NW10       N/A
CORONACH       N/A       70  36  29 W8         N/A

$$



USA.gov is the U.S. government's official web portal to all federal, state and local government web resources and services.